Temperature
-0 1 1 1 1 1 0 0 1 2 1 2 1 1 1 1 2 1 1 1 1 1 1 1 2 2 2 2 2 2 2 2 2 2 2 2 2 2 2 2 2 2 2 2
-0 1 1 0 0 0 0 0 0 1 1 1 1 1 1 1 1 1 1 1 1 1 1 1 1 1 1 1 1 2 2 2 2 2 1 1 1 1 1 2 2 2 2 2
-0 -1 0 1 0 0 -0 -0 0 1 1 0 0 -0 0 0 0 0 0 0 0 0 0 1 1 1 1 1 1 1 1 1 1 1 1 1 1 1 1 1 1 1 1 1
-2 -1 1 2 0 -0 -0 -1 -1 -1 -1 -0 -0 0 0 0 0 0 -0 0 0 0 0 0 0 0 0 0 -0 -0 -0 -0 0 0 -0 -0 -0 0 0 -0 0 0 0 0
-2 -1 -1 1 -0 -1 -1 -1 -1 -2 -1 -0 -0 -0 -0 0 0 0 0 0 0 0 0 -0 -0 -0 -0 -0 -1 -1 -1 -1 -1 -1 -1 -1 -1 -1 -1 -1 -1 -1 -0 -0
-2 -1 1 2 0 -0 -0 -0 -1 -2 -2 -1 -1 -2 -1 -0 -0 -0 -0 -0 -0 -0 -0 -0 -1 -1 -1 -1 -1 -1 -1 -1 -1 -1 -1 -1 -1 -2 -1 -1 -1 -1 -1 -1
-3 -2 -1 -1 -1 -0 0 0 -0 -1 -1 -1 -2 -1 -1 -1 -1 -1 -1 -1 -1 -1 -1 -1 -1 -1 -1 -2 -2 -2 -2 -2 -2 -2 -2 -2 -2 -2 -2 -2 -2 -2 -2 -1
-3 -2 -0 -1 -2 -1 -1 -0 -1 -1 -1 -1 -1 -1 -1 -1 -1 -1 -1 -1 -1 -1 -1 -1 -2 -2 -2 -2 -2 -2 -2 -2 -2 -2 -2 -2 -2 -2 -2 -2 -2 -2 -2 -2
-2 -1 -1 -1 -1 -0 -0 -1 -1 -1 -1 -1 -1 -1 -1 -1 -1 -2 -2 -1 -2 -2 -2 -2 -2 -2 -2 -3 -3 -3 -3 -3 -3 -3 -3 -3 -3 -3 -3 -3 -2 -3 -3 -3
-4 -3 -2 -1 -1 -0 -1 -1 -1 -1 -1 -1 -2 -2 -2 -2 -2 -2 -2 -2 -2 -2 -2 -2 -3 -3 -3 -3 -3 -3 -3 -3 -3 -3 -3 -3 -3 -3 -3 -3 -3 -3 -3 -3
-4 -4 -2 -1 -0 -0 -1 -1 -1 -1 -2 -2 -2 -2 -2 -2 -2 -2 -2 -3 -3 -3 -3 -3 -3 -3 -3 -3 -4 -4 -4 -4 -4 -4 -4 -4 -4 -4 -4 -4 -4 -3 -3 -3
-2 -2 -3 -2 -1 -1 -2 -2 -2 -2 -2 -2 -2 -2 -2 -3 -3 -3 -3 -3 -3 -3 -3 -3 -3 -4 -4 -4 -4 -4 -4 -4 -4 -4 -4 -4 -4 -4 -4 -4 -4 -4 -4 -4
-2 -2 -2 -2 -2 -2 -2 -2 -2 -3 -2 -2 -3 -3 -3 -3 -3 -3 -3 -4 -4 -4 -4 -4 -4 -4 -4 -4 -4 -4 -4 -4 -5 -5 -5 -5 -5 -4 -4 -4 -4 -4 -4 -4
-2 -2 -3 -3 -3 -3 -3 -3 -3 -3 -3 -3 -3 -3 -3 -4 -4 -4 -4 -4 -4 -4 -4 -4 -4 -4 -4 -4 -4 -5 -5 -5 -5 -5 -5 -5 -5 -5 -5 -5 -5 -5 -4 -4
-3 -3 -3 -3 -3 -3 -3 -3 -4 -4 -4 -4 -4 -4 -4 -4 -4 -4 -4 -4 -4 -4 -4 -4 -4 -4 -4 -5 -5 -5 -5 -5 -5 -5 -5 -5 -5 -5 -5 -5 -5 -5 -5 -5
-3 -3 -3 -4 -4 -4 -4 -4 -4 -4 -4 -4 -4 -4 -4 -4 -5 -5 -5 -5 -5 -5 -5 -5 -5 -5 -5 -5 -5 -5 -5 -5 -5 -5 -5 -5 -5 -5 -6 -6 -6 -5 -5 -5
-4 -4 -4 -4 -4 -4 -4 -4 -4 -4 -5 -5 -5 -5 -5 -5 -5 -5 -5 -5 -5 -5 -5 -5 -5 -5 -5 -5 -5 -5 -5 -5 -5 -5 -5 -5 -6 -6 -6 -6 -6 -6 -6 -5
-4 -4 -4 -4 -5 -5 -5 -5 -5 -5 -5 -5 -5 -5 -5 -5 -5 -5 -5 -5 -5 -5 -5 -6 -6 -5 -5 -5 -5 -6 -6 -6 -6 -6 -6 -6 -6 -6 -6 -6 -6 -6 -6 -6
-4 -4 -4 -4 -5 -5 -5 -5 -5 -5 -5 -5 -5 -5 -5 -5 -5 -6 -6 -6 -6 -6 -6 -6 -6 -6 -6 -6 -6 -6 -6 -6 -6 -6 -6 -6 -6 -6 -6 -6 -6 -6 -6 -6
-4 -4 -4 -4 -5 -5 -5 -5 -5 -5 -5 -5 -5 -6 -6 -6 -6 -6 -6 -6 -6 -6 -6 -6 -6 -6 -6 -6 -6 -6 -6 -6 -6 -6 -6 -6 -6 -7 -7 -7 -7 -6 -6 -6
-4 -4 -4 -5 -5 -5 -5 -5 -6 -6 -6 -6 -6 -6 -6 -6 -6 -6 -6 -6 -6 -6 -6 -6 -6 -6 -6 -6 -6 -6 -6 -6 -7 -7 -7 -7 -7 -7 -7 -7 -7 -7 -7 -7
-4 -4 -5 -5 -5 -5 -6 -6 -6 -6 -6 -6 -6 -6 -6 -6 -6 -6 -6 -6 -6 -7 -7 -7 -6 -7 -7 -7 -7 -7 -7 -7 -7 -7 -7 -7 -7 -7 -7 -7 -7 -7 -7 -7
-4 -5 -5 -5 -5 -6 -6 -6 -6 -6 -6 -6 -6 -6 -7 -7 -7 -7 -7 -7 -7 -7 -7 -7 -7 -7 -7 -7 -7 -7 -7 -7 -7 -7 -7 -7 -7 -7 -7 -7 -7 -7 -7 -7
-5 -5 -5 -6 -6 -6 -6 -6 -6 -6 -6 -6 -7 -7 -7 -7 -7 -7 -7 -7 -7 -7 -7 -7 -7 -7 -7 -7 -7 -7 -7 -7 -8 -8 -8 -8 -8 -8 -7 -7 -7 -7 -7 -7
-5 -5 -6 -6 -6 -6 -6 -7 -7 -7 -7 -7 -7 -7 -7 -7 -7 -7 -7 -7 -7 -7 -7 -7 -7 -7 -7 -7 -8 -8 -8 -8 -8 -8 -8 -8 -8 -8 -8 -8 -8 -8 -7 -7
-5 -6 -6 -6 -6 -7 -7 -7 -7 -7 -7 -7 -7 -7 -7 -7 -7 -7 -7 -7 -7 -7 -7 -7 -8 -8 -8 -8 -8 -8 -8 -8 -8 -8 -8 -8 -8 -8 -8 -8 -8 -7 -7 -7
-6 -6 -6 -7 -7 -7 -7 -7 -7 -7 -7 -7 -7 -7 -7 -7 -7 -7 -8 -8 -8 -8 -8 -8 -8 -8 -8 -8 -8 -8 -8 -8 -8 -8 -8 -8 -8 -8 -7 -7 -7 -7 -7 -7
Wind_Speed
6 6 4 6 7 5 6 7 7 9 9 12 10 9 9 7 7 8 7 7 6 5 4 4 4 3 3 3 3 2 1 1 1 1 1 1 1 1 0 0 1 1 1 1
5 4 4 7 8 8 8 7 8 10 13 10 9 7 7 7 6 7 8 7 6 5 4 4 4 4 3 3 3 2 1 1 1 1 2 1 1 1 1 1 1 1 0 0
4 5 4 6 7 7 6 6 6 9 10 8 7 7 6 6 6 7 7 7 5 5 4 4 4 3 3 3 2 2 2 2 2 2 1 1 1 2 1 0 0 1 1 1
2 3 4 6 1 4 5 6 6 6 7 7 7 7 5 5 5 6 6 6 5 4 4 4 3 2 2 2 2 2 2 2 2 2 1 1 1 1 1 1 0 1 2 2
1 2 7 7 3 3 4 5 4 6 7 6 6 4 4 4 4 4 4 5 4 3 3 3 3 2 2 2 2 2 2 2 2 1 1 1 1 1 1 1 1 1 1 1
2 2 6 5 2 1 2 5 3 3 5 4 3 3 5 6 6 5 5 4 4 3 3 3 3 3 3 3 3 2 2 2 2 1 1 1 1 1 1 1 1 1 2 2
4 5 7 5 3 1 2 5 4 2 3 3 3 5 5 5 5 4 4 4 3 3 3 3 3 3 3 3 3 3 2 2 2 2 1 1 1 1 1 1 1 1 2 2
4 4 7 2 3 4 5 3 3 4 4 4 6 6 5 4 3 4 4 4 3 3 3 4 3 3 3 3 3 3 3 3 3 3 2 2 1 1 1 0 1 1 1 2
7 7 3 2 4 4 3 3 4 4 5 5 5 5 4 4 3 3 3 3 2 2 3 4 4 3 2 3 3 3 3 3 3 3 3 2 1 1 1 1 1 1 1 2
4 7 6 5 4 4 4 5 6 5 6 5 5 5 4 4 3 3 2 2 2 2 3 4 4 4 3 3 2 2 3 3 3 3 3 3 2 1 1 1 2 2 2 2
5 6 6 5 5 5 6 6 6 6 5 5 5 5 4 4 4 3 2 2 1 1 2 3 4 4 4 3 2 2 2 3 3 3 3 3 2 2 2 2 2 2 2 2
6 5 4 7 5 4 5 7 7 6 6 4 4 4 4 4 3 2 1 1 1 1 2 2 3 4 4 3 2 2 2 3 3 2 2 2 2 2 3 3 4 3 3 3
6 5 6 7 6 5 5 7 6 6 5 5 4 3 3 3 2 1 1 1 1 2 2 2 2 3 4 3 2 1 2 3 3 2 2 2 2 2 3 4 5 4 4 4
5 3 4 5 5 6 6 6 5 4 4 3 3 2 2 1 1 1 1 2 2 2 2 2 2 3 4 2 2 2 2 3 3 2 2 2 2 1 2 2 3 3 4 5
4 3 5 5 5 6 5 4 4 4 4 3 2 1 1 1 2 2 2 1 1 1 2 2 3 4 3 2 2 2 2 2 2 2 2 2 1 1 1 2 2 2 3 3
5 4 3 4 5 5 5 4 4 4 4 3 3 2 2 1 1 1 1 1 1 2 3 3 3 4 3 2 2 2 2 3 3 2 2 1 1 1 1 2 2 2 2 2
2 3 4 5 6 6 5 5 4 4 3 3 3 2 1 0 0 1 1 2 2 2 3 3 4 4 3 2 2 2 2 3 4 3 2 1 1 1 1 1 2 2 2 2
5 6 6 5 5 6 6 5 4 3 3 4 2 1 0 0 1 1 2 2 2 3 3 3 3 3 3 2 2 2 2 2 2 2 2 1 1 1 1 1 1 2 2 2
4 4 4 4 4 4 4 4 3 3 3 2 1 1 1 1 1 1 1 1 2 3 4 4 5 3 3 3 3 1 2 2 1 2 2 2 2 1 1 1 1 1 1 2
3 3 3 3 3 2 2 2 2 2 2 1 0 0 1 1 1 1 1 1 2 3 4 4 3 3 3 3 3 1 1 1 1 1 2 1 1 1 1 1 1 1 1 1
3 3 3 3 3 2 2 2 1 2 2 1 1 1 1 2 1 1 1 2 3 3 3 4 3 3 3 3 3 1 1 1 1 1 1 1 1 1 1 1 1 1 1 1
3 3 3 2 2 2 2 2 1 1 1 1 1 1 1 1 2 2 2 3 4 5 3 3 3 3 4 3 2 1 1 1 1 1 1 1 1 1 1 1 1 1 1 1
3 2 2 2 2 2 2 2 1 1 2 2 2 2 2 2 2 2 3 3 3 5 3 3 4 5 4 2 1 1 1 1 1 1 1 1 1 2 2 2 1 1 1 1
2 2 2 2 1 1 2 3 2 2 2 2 2 2 2 2 2 2 2 4 5 5 3 4 5 4 4 2 1 1 1 1 1 1 1 1 2 2 2 1 1 1 1 1
3 2 2 2 2 3 3 2 1 1 1 2 2 2 2 2 2 2 2 3 5 4 3 4 5 4 3 1 1 2 2 2 1 1 1 1 2 2 2 2 1 1 1 1
3 3 3 3 3 3 2 1 2 2 2 2 2 2 2 1 2 2 2 3 3 3 3 3 3 3 2 2 2 2 2 2 3 2 2 2 2 2 2 2 2 1 1 1
2 2 2 2 2 2 2 2 2 2 2 2 2 2 2 1 1 1 2 2 2 2 2 2 2 2 1 2 2 2 2 2 2 2 2 2 2 2 2 2 2 2 2 2
Wind_Direction
263 270 249 253 256 237 221 221 230 259 263 279 291 295 302 305 314 320 321 324 324 324 328 336 342 344 343 342 341 341 2 24 337 358 35 90 105 113 106 349 282 220 221 234
290 277 258 273 264 244 239 238 247 268 274 279 291 299 303 306 312 314 314 315 318 324 328 331 333 336 342 352 353 12 32 3 15 49 53 81 93 83 70 42 0 6 312 245
283 310 326 283 249 222 229 227 220 245 264 298 310 306 299 302 305 302 307 314 316 316 317 321 327 334 338 340 1 28 35 17 27 54 56 44 79 71 50 37 43 347 317 300
293 4 255 250 251 203 229 252 241 256 278 291 295 296 286 284 286 299 306 312 320 321 323 329 333 347 357 5 29 37 37 28 29 45 41 37 66 64 14 341 352 320 309 307
163 274 280 292 276 189 208 272 249 251 279 301 317 318 304 306 312 299 300 308 311 310 320 337 344 355 15 28 36 41 35 19 7 15 21 27 33 29 354 19 346 333 318 309
164 223 250 263 284 239 128 288 294 263 283 303 345 329 294 312 323 324 327 327 329 344 5 6 355 7 33 26 25 16 7 355 351 10 22 7 345 335 346 357 324 332 320 307
203 235 263 266 278 101 160 270 305 280 286 284 256 252 281 306 319 324 326 334 346 6 12 2 357 16 27 18 3 346 350 360 3 0 354 343 3 349 345 342 348 329 313 310
180 218 260 247 130 180 233 280 293 287 281 274 273 282 290 296 305 319 332 344 354 7 2 0 4 20 18 358 340 351 4 7 360 353 349 5 27 356 339 326 337 326 327 324
198 220 260 203 212 242 254 267 273 274 284 275 276 279 285 288 290 301 312 327 346 2 1 358 0 14 6 338 349 8 14 5 358 355 354 355 3 342 337 338 323 308 307 306
250 267 272 262 258 277 272 265 277 278 279 272 267 271 275 282 292 298 306 319 343 8 5 351 352 360 354 341 3 27 16 359 353 353 351 349 344 339 337 321 301 291 293 298
253 275 299 277 263 272 284 291 294 292 282 268 265 269 269 274 281 285 302 320 350 353 336 333 343 349 348 349 14 23 4 352 349 349 343 342 343 330 312 292 279 288 281 274
240 245 242 269 278 284 289 291 289 290 293 284 261 265 273 273 274 275 288 313 331 333 332 333 340 339 339 342 1 13 354 346 343 337 332 329 328 340 346 331 337 334 324 309
250 272 261 271 289 296 289 289 290 285 278 286 286 266 269 277 286 282 286 300 299 302 311 320 330 328 329 333 350 359 333 322 321 322 319 316 318 329 335 346 357 355 345 340
265 281 283 287 293 303 300 299 301 302 296 284 281 279 273 284 297 288 280 285 294 307 316 319 322 315 317 323 334 331 322 317 319 311 308 308 309 313 316 322 330 335 340 352
290 282 265 281 297 310 312 316 320 317 315 314 300 275 259 254 268 279 288 302 330 339 331 327 320 311 316 315 317 314 316 314 316 310 307 309 313 316 319 316 317 324 337 351
298 298 284 290 303 311 314 314 307 302 305 302 297 291 278 244 244 279 308 332 341 317 317 317 311 309 313 309 316 318 314 316 321 315 313 320 328 334 327 327 330 336 339 338
282 291 293 300 300 302 301 295 289 291 297 295 289 292 295 96 37 348 340 334 309 296 301 306 308 315 313 313 312 312 316 317 327 330 321 327 331 322 316 326 328 331 330 338
243 250 255 260 275 287 300 306 305 301 298 296 301 322 50 162 269 291 316 333 342 333 320 311 311 319 319 320 314 309 312 311 318 320 314 318 321 325 337 331 326 329 330 336
262 262 268 269 269 273 285 296 304 305 307 306 299 278 270 276 276 291 322 345 339 322 313 314 326 341 327 319 325 314 313 315 326 331 328 319 334 349 346 336 333 334 329 334
277 281 284 288 288 279 284 293 301 306 305 298 287 336 336 325 321 324 326 308 291 282 291 308 325 325 314 308 324 314 313 321 329 332 333 330 348 348 338 329 327 333 331 323
282 289 293 295 300 299 291 284 273 284 299 298 227 243 267 295 307 301 299 305 306 309 312 321 332 315 311 317 328 334 326 328 332 330 335 339 338 330 324 321 324 327 329 328
270 273 280 284 289 301 304 298 275 278 295 297 285 270 276 293 305 306 280 264 288 316 328 315 311 314 324 332 337 334 326 323 323 330 331 328 319 308 307 312 316 318 320 318
260 259 265 265 266 279 299 296 277 263 267 267 264 264 264 270 271 271 292 294 297 312 321 303 312 320 329 344 340 330 324 323 320 318 315 312 305 298 295 299 303 304 304 308
250 254 259 265 256 260 280 287 286 277 270 274 268 261 257 276 291 276 273 296 309 314 313 311 324 328 337 357 335 326 317 315 313 309 309 309 306 304 303 300 297 296 298 301
239 240 237 229 235 247 256 274 297 299 294 293 291 287 276 254 252 279 296 300 307 317 321 322 328 335 352 340 327 318 310 304 300 303 304 305 306 307 304 301 296 296 293 286
228 234 240 238 239 243 245 247 260 268 269 282 295 293 296 297 283 287 296 299 304 320 324 315 317 328 334 324 318 314 311 309 312 311 304 300 300 301 302 304 298 287 281 280
231 233 240 255 251 235 230 233 241 249 246 248 272 281 287 298 306 307 310 314 316 319 315 313 313 312 313 311 309 308 308 305 300 295 292 287 283 283 284 283 280 277 273 269
Height
1501 1498 1498 1497 1495 1496 1497 1495 1494 1484 1481 1473 1470 1468 1466 1463 1460 1457 1454 1451 1449 1446 1444 1442 1441 1439 1438 1437 1437 1437 1437 1437 1437 1437 1437 1437 1437 1437 1438 1438 1438 1439 1440 1440
1501 1496 1496 1494 1491 1491 1490 1489 1487 1482 1477 1470 1469 1467 1464 1461 1459 1456 1453 1450 1447 1445 1443 1441 1439 1438 1437 1436 1436 1435 1434 1434 1434 1434 1434 1434 1434 1434 1434 1435 1435 1436 1436 1437
1501 1499 1495 1491 1484 1484 1484 1482 1482 1480 1474 1469 1467 1464 1462 1460 1458 1455 1452 1449 1446 1444 1442 1440 1438 1437 1436 1434 1434 1433 1432 1432 1433 1432 1432 1432 1432 1432 1432 1432 1432 1433 1433 1434
1506 1502 1494 1482 1479 1479 1479 1478 1477 1474 1471 1469 1467 1463 1461 1459 1457 1454 1451 1448 1445 1443 1441 1439 1437 1436 1435 1433 1432 1431 1431 1431 1431 1430 1430 1430 1429 1429 1429 1429 1430 1430 1430 1431
1508 1505 1494 1481 1477 1478 1479 1475 1472 1471 1469 1467 1465 1462 1459 1457 1455 1453 1450 1447 1445 1443 1441 1439 1437 1435 1433 1432 1431 1430 1429 1430 1430 1429 1428 1427 1427 1427 1428 1427 1427 1427 1428 1428
1507 1502 1491 1477 1475 1474 1476 1474 1468 1468 1467 1465 1464 1464 1459 1455 1453 1451 1449 1446 1444 1442 1440 1438 1436 1434 1433 1431 1430 1429 1429 1429 1429 1428 1427 1426 1425 1425 1425 1425 1425 1425 1425 1426
1505 1502 1488 1477 1474 1475 1479 1474 1467 1466 1465 1464 1463 1462 1458 1455 1453 1450 1448 1446 1443 1441 1439 1438 1436 1434 1432 1430 1429 1429 1428 1428 1427 1426 1425 1425 1424 1424 1424 1423 1423 1423 1423 1423
1502 1500 1486 1474 1474 1475 1472 1467 1466 1464 1463 1461 1459 1457 1455 1453 1451 1449 1447 1445 1443 1440 1439 1437 1436 1434 1431 1430 1429 1428 1427 1426 1426 1425 1424 1423 1422 1422 1422 1421 1421 1421 1420 1420
1487 1481 1473 1471 1470 1469 1468 1466 1464 1462 1461 1459 1456 1454 1453 1451 1449 1447 1446 1444 1442 1440 1438 1437 1435 1433 1431 1430 1429 1428 1426 1425 1424 1423 1422 1421 1421 1420 1420 1419 1419 1418 1418 1418
1482 1474 1470 1469 1468 1467 1466 1464 1462 1460 1458 1456 1454 1452 1450 1448 1447 1445 1444 1442 1441 1439 1437 1436 1434 1433 1431 1430 1428 1427 1426 1424 1423 1422 1420 1420 1419 1418 1418 1417 1417 1417 1416 1416
1478 1471 1468 1465 1465 1464 1462 1461 1459 1457 1455 1453 1451 1449 1448 1446 1445 1443 1442 1441 1440 1438 1436 1435 1434 1432 1430 1429 1427 1426 1424 1423 1421 1420 1419 1418 1417 1417 1417 1416 1416 1415 1415 1414
1471 1467 1467 1464 1462 1461 1459 1457 1455 1453 1451 1450 1448 1446 1445 1443 1442 1441 1440 1439 1438 1437 1436 1434 1433 1431 1430 1428 1426 1425 1423 1421 1420 1419 1417 1416 1415 1415 1415 1414 1414 1413 1413 1413
1466 1464 1463 1461 1460 1458 1456 1454 1452 1450 1448 1447 1445 1444 1443 1441 1440 1439 1438 1438 1437 1436 1434 1433 1431 1430 1429 1427 1426 1424 1422 1420 1419 1417 1416 1415 1414 1412 1412 1412 1412 1411 1411 1411
1463 1462 1460 1458 1457 1455 1453 1451 1449 1447 1446 1444 1443 1441 1440 1439 1438 1437 1436 1436 1435 1434 1433 1431 1430 1429 1427 1426 1425 1423 1421 1419 1418 1416 1415 1413 1412 1411 1410 1410 1409 1409 1409 1409
1460 1459 1458 1455 1454 1452 1450 1448 1446 1444 1442 1441 1440 1439 1438 1436 1435 1435 1434 1434 1433 1432 1431 1430 1429 1427 1426 1425 1423 1421 1420 1418 1416 1415 1413 1412 1411 1410 1409 1409 1408 1407 1407 1407
1457 1456 1454 1452 1451 1449 1447 1445 1443 1441 1440 1438 1437 1436 1435 1434 1434 1433 1432 1432 1431 1430 1429 1428 1427 1426 1425 1423 1422 1420 1418 1416 1415 1413 1412 1410 1410 1409 1408 1408 1407 1407 1406 1406
1454 1452 1451 1449 1447 1446 1444 1443 1441 1439 1438 1436 1435 1434 1434 1433 1432 1431 1431 1430 1430 1429 1428 1427 1425 1424 1423 1421 1420 1418 1416 1415 1413 1412 1411 1410 1409 1408 1408 1407 1407 1406 1406 1406
1452 1451 1449 1447 1445 1443 1442 1440 1439 1438 1436 1435 1434 1433 1432 1431 1430 1430 1429 1429 1428 1427 1426 1425 1424 1423 1421 1420 1419 1417 1415 1414 1412 1411 1410 1409 1408 1408 1407 1406 1406 1405 1405 1405
1448 1447 1446 1444 1443 1441 1440 1438 1437 1436 1435 1434 1433 1432 1431 1430 1429 1429 1428 1427 1426 1425 1425 1424 1422 1421 1420 1419 1417 1416 1414 1413 1411 1410 1409 1408 1407 1407 1406 1406 1405 1405 1404 1404
1445 1444 1443 1441 1440 1439 1437 1436 1435 1434 1433 1432 1431 1430 1430 1429 1428 1427 1427 1426 1425 1424 1423 1422 1421 1420 1418 1417 1416 1415 1413 1412 1410 1409 1408 1407 1407 1406 1405 1405 1404 1404 1403 1403
1442 1441 1440 1439 1438 1436 1435 1434 1433 1432 1432 1431 1430 1429 1428 1428 1427 1426 1425 1424 1423 1422 1421 1420 1419 1418 1417 1416 1415 1413 1412 1411 1409 1408 1407 1406 1406 1405 1404 1404 1403 1403 1402 1402
1440 1438 1437 1436 1435 1434 1433 1432 1432 1431 1430 1429 1428 1428 1427 1426 1426 1425 1424 1423 1422 1421 1420 1419 1417 1416 1415 1414 1413 1412 1411 1410 1408 1407 1406 1405 1405 1404 1403 1403 1402 1402 1401 1401
1437 1436 1435 1434 1433 1432 1431 1431 1430 1429 1428 1428 1427 1426 1426 1425 1424 1424 1422 1422 1420 1419 1418 1417 1416 1415 1414 1413 1412 1411 1410 1409 1408 1407 1406 1405 1404 1403 1402 1402 1401 1401 1400 1400
1434 1433 1433 1432 1431 1430 1429 1428 1428 1427 1427 1426 1425 1425 1424 1424 1423 1422 1421 1420 1419 1418 1417 1416 1415 1414 1413 1412 1411 1410 1409 1408 1407 1406 1405 1404 1403 1402 1401 1401 1400 1400 1400 1399
1431 1431 1430 1429 1428 1427 1427 1426 1426 1425 1425 1424 1424 1423 1423 1422 1422 1421 1420 1418 1417 1416 1415 1414 1413 1412 1411 1410 1410 1409 1408 1407 1406 1405 1404 1403 1402 1401 1401 1400 1400 1399 1399 1398
1428 1428 1427 1426 1426 1425 1425 1424 1424 1423 1423 1422 1422 1421 1421 1420 1420 1419 1418 1417 1416 1415 1414 1413 1412 1411 1410 1409 1408 1408 1407 1406 1405 1404 1404 1403 1402 1401 1400 1399 1399 1398 1398 1398
1425 1425 1424 1423 1423 1423 1422 1422 1421 1421 1421 1420 1420 1420 1419 1419 1418 1417 1416 1415 1414 1413 1412 1412 1411 1410 1409 1408 1408 1407 1406 1405 1404 1404 1403 1402 1401 1400 1400 1399 1398 1398 1397 1397